Location: Newark
(45.7167°N, 7.8833°E)
Time: 12:24:22
(UTC+00:00)

ISS - Pass Details

Date: 03 April 2020
Orbit: 417 x 419 km, 51.6° (Epoch: 03 June)

Event Time Altitude Azimuth Distance (km) Brightness Sun altitude
Rises 18:54:43 0° 297° (WNW) 2,368 2.2 -10.1°
Reaches altitude 10° 18:56:50 10° 296° (WNW) 1,500 0.6 -10.4°
Maximum altitude 19:00:12 76° 211° (SSW) 434 -3.7 -11.0°
Enters shadow 19:02:35 18° 127° (SE) 1,113 -2.2 -11.4°
